Weather in Mangush

Ukraine / Donetsk Region     47°03′24″N   37°18′28″E
В апреле 2022 года жителям России запретили посещать сайт meteo.paraplan.net по решению Генеральной прокуратуры. Аудитория сайта уменьшилась в 10 раз. Владельцы сайта не видят смысла в поддержке погодного сервера в таких условиях. Сайт будет закрыт в октябре.
temp.,
°C
wind,
m/s
gust,
m/s
humid.,
%
clouds,
%
prec.,
mm/h
press.,
hPa
HPBL,
m
3 october, mon
mon300:00+15wnw81278100 2.8 1002780
03:00+12w813750 2.8 1005929
06:00+12w712750 0.0 1007693
09:00+13wsw68673 0.0 1010770
12:00+17wsw810482 0.0 10111569
15:00+19wsw810395 0.0 10112107
18:00+17sw7105587 0.0 1012637
21:00+15sw3758100 0.0 1013296
4 october, tue
tue400:00+14sw3673100 0.8 1013224
03:00+15ssw5873100 3.2 1013438
06:00+15s587349 1.8 1013281
09:00+17sw35645 2.2 1014581
12:00+19ssw45515 0.1 10151352
15:00+19ssw66492 0.1 10151394
18:00+17sw46645 0.0 1017258
21:00+15wsw357412 0.1 1018157
5 october, wed
wed500:00+14nnw355963 0.0 1020132
03:00+13nnw3555100 0.0 1020171
06:00+11nnw355985 0.0 1022124
09:00+14nw34493 0.0 1023359
12:00+18w45360 0.0 10241462
15:00+19w56354 0.0 10231784
18:00+16wnw584799 0.0 1023327
21:00+13wnw36575 0.0 1025165
6 october, thu
thu600:00+12wnw356162 0.0 1025100
03:00+12nnw3467100 0.0 102693
06:00+11n347486 0.0 102696
09:00+13n336495 0.0 1027296
12:00+17nw23465 0.0 10261102
15:00+18wsw13445 0.0 10251477
18:00+16ssw34571 0.0 1026143
21:00+14wsw33640 0.0 1026110
7 october, fri
fri700:00+13w33612 0.0 102660
03:00+13wnw22605 0.0 102633
06:00+12wnw225924 0.0 102627
09:00+16wnw2249100 0.0 1026202
12:00+19sw124076 0.0 1025901
15:00+20sse224062 0.0 1024784
18:00+16ssw34615 0.0 102493
21:00+15nw11625 0.0 102410